Flag for Libya Weather past 2 weeks in Tripoli, Libya

Now
81 °F

Clear.


Feels Like: 85 °F
Forecast: 76 / 85 °F
Wind: 7 mph from Northeast

Location: Djerba Mellita

Current Time: Aug 29, 2014 at 5:18:44 AM

Latest Report: Aug 29, 2014 at 4:30 AM


Visibility: 5 mi

Pressure: 29.92 "Hg

Humidity: 74%

Dew point: 72 °F

Location of TripoliLocation

Historic Weather in Tripoli — Graph

°F

Tripoli temperature yesterday

Maximum temperature yesterday: 91 °F (at 3:30 PM)
Minimum temperature yesterday: 81 °F (at 1:00 AM)
Average temperature yesterday: 85 °F

Past Weeks' High & Low Weather Summary

 TemperatureHumidityPressure
High104 °F (Aug 23, 3:00 PM)94% (Aug 20, 4:00 AM)30.07 "Hg (Aug 20, 4:00 AM)
Low73 °F (Aug 26, 6:30 AM)26% (Aug 23, 3:00 PM)29.77 "Hg (Aug 14, 4:00 AM)
Average84 °F68%29.92 "Hg
* Reported Aug 14 4:00 AM — Aug 29 4:00 AM, Tripoli, Weather by CustomWeather, © 2014

Note: Actual official high and low records may vary slightly from our data, if they occured in-between our weather recording intervals... More about our weather records

Advertising

Tripoli weather history for previous 24 hours

 ConditionsComfort  
Time TempWeatherWind HumidityBarometerVisibility
4:00 AM
Aug 29
79 °FClear.7 mph74%29.92 "Hg5 mi
3:30 AM79 °FClear.7 mph74%29.92 "Hg5 mi
3:00 AM81 °FClear.7 mph70%29.92 "Hg5 mi
2:30 AM81 °FClear.5 mph70%29.92 "Hg5 mi
2:00 AM81 °FClear.6 mph70%29.95 "Hg5 mi
1:30 AM81 °FClear.7 mph70%29.95 "Hg5 mi
1:00 AM81 °FClear.6 mph74%29.95 "Hg10 mi
12:30 AM81 °FClear.6 mph70%29.95 "Hg10 mi
12:00 AM81 °FPassing clouds.5 mph70%29.95 "HgN/A
11:30 PM
Aug 28
81 °FClear.7 mph70%29.92 "Hg10 mi
11:00 PM82 °FClear.5 mph70%29.92 "Hg10 mi
10:30 PM82 °FClear.5 mph66%29.92 "Hg10 mi
10:00 PM82 °FClear.6 mph66%29.92 "Hg10 mi
9:30 PM82 °FClear.6 mph66%29.92 "Hg10 mi
9:00 PM82 °FClear.8 mph66%29.89 "Hg10 mi
8:30 PM84 °FClear.8 mph62%29.89 "Hg10 mi
8:00 PM84 °FClear.9 mph66%29.89 "Hg10 mi
7:30 PM84 °FPassing clouds.10 mph70%29.89 "HgN/A
7:00 PM86 °FSunny.12 mph66%29.89 "Hg10 mi
6:30 PM86 °FSunny.13 mph62%29.89 "Hg10 mi
6:00 PM88 °FSunny.12 mph62%29.89 "Hg10 mi
5:30 PM88 °FSunny.12 mph62%29.89 "Hg10 mi
5:00 PM88 °FSunny.12 mph62%29.89 "Hg10 mi
4:30 PM88 °FSunny.13 mph59%29.89 "Hg10 mi
4:00 PM90 °FSunny.14 mph49%29.89 "Hg10 mi
3:30 PM91 °FSunny.14 mph44%29.92 "Hg10 mi
3:00 PM90 °FSunny.13 mph41%29.92 "Hg10 mi
2:30 PM90 °FPassing clouds.13 mph38%29.92 "HgN/A
1:30 PM90 °FSunny.14 mph41%29.92 "Hg10 mi
1:00 PM88 °FPassing clouds.14 mph46%29.92 "HgN/A
12:30 PM90 °FSunny.13 mph46%29.92 "Hg10 mi
12:00 PM90 °FPassing clouds.12 mph46%29.92 "HgN/A
11:00 AM86 °FSunny.14 mph55%29.92 "Hg10 mi
10:30 AM88 °FSunny.13 mph59%29.92 "Hg10 mi
10:00 AM86 °FSunny.13 mph62%29.89 "Hg10 mi
9:30 AM86 °FSunny.12 mph59%29.89 "Hg10 mi
9:00 AM86 °FSunny.12 mph59%29.89 "Hg10 mi
8:30 AM84 °FSunny.10 mph66%29.89 "Hg10 mi
8:00 AM84 °FClear.9 mph66%29.89 "Hg5 mi
7:30 AM82 °FClear.10 mph74%29.89 "Hg4 mi
7:00 AM81 °FClear.10 mph84%29.89 "Hg4 mi
6:30 AM81 °FClear.12 mph84%29.89 "Hg4 mi
6:00 AM81 °FClear.12 mph84%29.89 "Hg4 mi
5:30 AM81 °FClear.9 mph84%29.86 "Hg4 mi
5:00 AM81 °FClear.8 mph84%29.86 "Hg4 mi
Weather by CustomWeather, © 2014

See weather overviewHow to use our weather pages